Regional Weather Roundup
Issued by NWS

Home | Current Version | Previous Version | Text Only | Print | Product List | Glossary Off
Versions: 1 2 3 4 5 6 7 8 9 10 11 12 13 14 15 16 17 18 19 20 21 22 23 24 25 26 27 28 29 30 31 32 33 34 35 36 37 38 39 40 41 42 43 44 45 46 47 48 49 50

000
ASUS43 KIND 280809
RWRIN

WEATHER ROUNDUP FOR INDIANA
NATIONAL WEATHER SERVICE INDIANAPOLIS IN
400 AM EDT TUE APR 28 2015

NOTE: "FAIR" INDICATES FEW OR NO CLOUDS BELOW 12,000 FEET WITH NO
SIGNIFICANT WEATHER AND/OR OBSTRUCTIONS TO VISIBILITY.

* - STATION DOES NOT REPORT WEATHER SUCH AS PRECIPITATION OR FOG.

+ - STATION NOT QUALITY CONTROLLED BY THE NATIONAL WEATHER SERVICE.
    USE DATA WITH CAUTION...ESPECIALLY DEWPOINT AND RELATIVE
    HUMIDITY OBSERVATIONS.

INZ001>003-010>013-019-020-280900-
NORTHWEST INDIANA

CITY           SKY/WX    TMP DP  RH WIND       PRES   REMARKS
GARY /AIRPORT/ CLEAR     35  32  88 W3        30.14R
KNOX *+        CLEAR     32  30  93 CALM      30.12R
LA PORTE +     PTCLDY    35  35 100 CALM      30.12R
MICHIGAN CITY+ CLEAR     32  32 100 CALM      30.13R
MONTICELLO +   CLEAR     34  32  94 CALM      30.11R
VALPARAISO     CLEAR     35  34  96 CALM      30.13R

$$

LMZ046-743>745-280900-
SOUTHERN LAKE MICHIGAN

STATION/POSITION TIME  TEMP    WIND        PRES    WAVE
                       AIR SEA DIR/SP/G            HT
                 (UTC) (F)     (DEG/KT/KT) (MB)    (FT)
BURNS HARBOR     0800   42     330/  5/  8 1020.7S
MICHIGAN CITY    0800   40     290/  4/  5   N/A
5NW MICH CITY    0800   40 46  320/  6/  8   N/A     2

$$

INZ004-005-014>016-021>024-280900-
NORTH CENTRAL INDIANA

CITY           SKY/WX    TMP DP  RH WIND       PRES   REMARKS
GOSHEN         CLEAR     33  31  92 CALM      30.10R
LOGANSPORT +   CLEAR     36  32  87 CALM      30.11S
PERU/GRISSOM   CLEAR     38  35  85 N2        30.09S
ROCHESTER +    CLEAR     37  36  93 CALM      30.11R
SOUTH BEND     CLEAR     36  32  85 NW6       30.12R
WARSAW +       CLEAR     32  32 100 CALM      30.10S

$$

INZ006>009-017-018-025>027-280900-
NORTHEAST INDIANA

CITY           SKY/WX    TMP DP  RH WIND       PRES   REMARKS
ANGOLA *+      CLEAR     34  32  93 CALM      30.09S
AUBURN +       CLEAR     34  32  93 CALM      30.10S
FORT WAYNE     CLEAR     34  31  88 CALM      30.10S
HUNTINGTON +   CLEAR     36  33  90 CALM      30.10R

$$

INZ028-029-035-036-043>045-051>053-280900-
WEST CENTRAL INDIANA

CITY           SKY/WX    TMP DP  RH WIND       PRES   REMARKS
CRAWFORDSVL +  CLEAR     35  30  83 CALM      30.09S
GREENCASTLE +  CLEAR     39  32  75 CALM      30.09S
LAFAYETTE      CLEAR     36  34  92 CALM      30.11R
TERRE HAUTE    CLEAR     38  33  82 NE3       30.09S

$$

INZ030>032-037>040-046>048-054>057-064-065-280900-
CENTRAL INDIANA

CITY           SKY/WX    TMP DP  RH WIND       PRES   REMARKS
CP ATTERBURY + CLEAR     39  34  81 NE5       30.09R
FISHERS *+     CLEAR     36  36 100 CALM      30.09
FRANKFORT +    CLEAR     35  35 100 CALM      30.11R
GREENWOOD *+   CLEAR     41  34  75 CALM      30.08F
INDIANAPOLIS   CLEAR     44  35  70 E7        30.07S
-EAGLE CREEK   CLEAR     39  36  89 CALM      30.08S
KOKOMO *+      CLEAR     36  30  80 N3        30.10S
MARION +       CLEAR     36  33  89 CALM      30.10S
MT COMFORT *+  CLEAR     37  37 100 NE5       30.09S
SHELBYVILLE    CLEAR     40  34  79 NE3       30.08S
ZIONSVILLE +   CLEAR     38  34  84 CALM      30.09S

$$

INZ033-034-041-042-049-050-058-059-280900-
EAST CENTRAL INDIANA

CITY           SKY/WX    TMP DP  RH WIND       PRES   REMARKS
MUNCIE         CLEAR     37  34  89 CALM      30.09S

$$

INZ060-061-067>069-081>083-085>088-280900-
SOUTHWEST INDIANA

CITY           SKY/WX    TMP DP  RH WIND       PRES   REMARKS
EVANSVILLE     CLEAR     46  38  73 N7        30.07S
HUNTINGBURG *+ CLEAR     43  34  70 N6        30.07S
WASHINGTON +   CLEAR     38  35  88 CALM      30.07S

$$

INZ062-063-066-070>080-084-089>092-280900-
SOUTH CENTRAL AND SOUTHEAST INDIANA

CITY           SKY/WX    TMP DP  RH WIND       PRES   REMARKS
BEDFORD +      CLEAR     43  36  75 NE5       30.07S
BLOOMINGTON    CLEAR     42  36  79 NE6       30.07S
MADISON *+     CLEAR     41  34  75 NE3       30.08S
NORTH VERNON + CLEAR     43  37  81 CALM      30.09R
SEYMOUR +      FAIR      41  36  81 NE6       30.08R

$$



USA.gov is the U.S. government's official web portal to all federal, state and local government web resources and services.